Total_Precipitation_Accumulation
0.00 0.01 0.05 0.12 0.19 0.26 0.23 0.16 0.08 0.03 0.02 0.00 0.00 0.00 0.00 0.00 0.00 0.01 0.00 0.04 0.19 0.15 0.03 0.00 0.00 0.00 0.00 0.00 0.00 0.00 0.00 0.00 0.00 0.00 0.00 0.00 0.00 0.00 0.00 0.00 0.00 0.00 0.00
0.00 0.00 0.01 0.02 0.06 0.16 0.31 0.34 0.26 0.20 0.08 0.02 0.00 0.00 0.00 0.00 0.01 0.01 0.01 0.01 0.08 0.17 0.06 0.01 0.00 0.00 0.00 0.00 0.00 0.00 0.00 0.00 0.00 0.00 0.00 0.00 0.00 0.00 0.00 0.00 0.00 0.00 0.00
0.00 0.00 0.00 0.00 0.00 0.01 0.08 0.44 0.94 1.06 0.68 0.32 0.09 0.00 0.00 0.01 0.02 0.03 0.03 0.01 0.01 0.06 0.09 0.06 0.02 0.00 0.00 0.00 0.00 0.00 0.00 0.00 0.00 0.00 0.00 0.00 0.00 0.00 0.00 0.00 0.00 0.00 0.00
0.00 0.00 0.00 0.00 0.00 0.00 0.01 0.08 0.15 0.23 0.41 0.44 0.29 0.14 0.06 0.01 0.01 0.03 0.02 0.01 0.02 0.01 0.03 0.04 0.02 0.00 0.00 0.00 0.00 0.00 0.00 0.00 0.00 0.00 0.00 0.00 0.00 0.00 0.00 0.00 0.00 0.00 0.00
0.00 0.00 0.00 0.00 0.00 0.00 0.00 0.00 0.01 0.01 0.05 0.13 0.16 0.14 0.10 0.04 0.02 0.04 0.04 0.01 0.04 0.03 0.02 0.04 0.01 0.00 0.00 0.00 0.00 0.00 0.00 0.00 0.00 0.00 0.00 0.00 0.00 0.00 0.00 0.00 0.00 0.00 0.00
0.00 0.00 0.00 0.00 0.00 0.00 0.00 0.00 0.00 0.00 0.01 0.04 0.02 0.04 0.11 0.14 0.11 0.08 0.07 0.04 0.03 0.04 0.02 0.01 0.00 0.00 0.01 0.00 0.00 0.00 0.00 0.00 0.00 0.00 0.00 0.00 0.00 0.00 0.00 0.00 0.00 0.00 0.00
0.00 0.00 0.00 0.00 0.00 0.00 0.00 0.00 0.01 0.02 0.03 0.03 0.03 0.04 0.05 0.05 0.06 0.09 0.07 0.07 0.04 0.04 0.09 0.04 0.01 0.00 0.00 0.00 0.00 0.00 0.00 0.00 0.00 0.00 0.00 0.00 0.00 0.00 0.00 0.00 0.00 0.00 0.00
0.00 0.00 0.01 0.00 0.00 0.00 0.00 0.00 0.01 0.02 0.05 0.05 0.04 0.05 0.06 0.08 0.06 0.03 0.02 0.02 0.02 0.01 0.04 0.05 0.03 0.01 0.00 0.00 0.00 0.00 0.00 0.00 0.00 0.00 0.00 0.00 0.00 0.00 0.00 0.00 0.00 0.00 0.00
0.00 0.00 0.03 0.03 0.03 0.01 0.01 0.01 0.00 0.01 0.02 0.04 0.04 0.06 0.06 0.07 0.08 0.08 0.04 0.03 0.01 0.00 0.01 0.02 0.03 0.02 0.00 0.00 0.00 0.00 0.00 0.00 0.00 0.00 0.00 0.00 0.00 0.00 0.00 0.00 0.00 0.00 0.00
0.00 0.00 0.02 0.04 0.04 0.04 0.02 0.01 0.01 0.01 0.02 0.04 0.05 0.05 0.03 0.01 0.03 0.07 0.06 0.06 0.09 0.07 0.03 0.00 0.00 0.00 0.00 0.00 0.00 0.00 0.00 0.00 0.00 0.00 0.00 0.00 0.00 0.00 0.00 0.00 0.00 0.00 0.00
0.00 0.01 0.01 0.03 0.04 0.04 0.04 0.02 0.01 0.01 0.03 0.04 0.04 0.04 0.06 0.06 0.04 0.03 0.03 0.02 0.03 0.06 0.05 0.02 0.01 0.00 0.01 0.00 0.00 0.00 0.00 0.00 0.00 0.00 0.00 0.00 0.00 0.00 0.00 0.00 0.00 0.00 0.00
0.00 0.00 0.02 0.03 0.04 0.06 0.05 0.04 0.02 0.01 0.02 0.02 0.03 0.11 0.06 0.04 0.03 0.04 0.03 0.04 0.04 0.02 0.02 0.02 0.02 0.02 0.03 0.03 0.02 0.01 0.00 0.00 0.00 0.00 0.00 0.00 0.00 0.00 0.00 0.00 0.00 0.00 0.00
0.00 0.00 0.00 0.02 0.03 0.07 0.08 0.07 0.04 0.02 0.01 0.02 0.03 0.04 0.12 0.12 0.06 0.05 0.06 0.05 0.06 0.07 0.09 0.06 0.03 0.02 0.02 0.01 0.00 0.00 0.00 0.00 0.00 0.00 0.00 0.00 0.00 0.00 0.00 0.00 0.00 0.00 0.00
0.00 0.00 0.00 0.01 0.03 0.07 0.09 0.12 0.09 0.04 0.03 0.02 0.02 0.04 0.06 0.11 0.14 0.11 0.07 0.09 0.08 0.03 0.02 0.02 0.03 0.03 0.01 0.00 0.00 0.00 0.00 0.00 0.00 0.00 0.00 0.00 0.00 0.00 0.00 0.00 0.00 0.00 0.00
0.00 0.00 0.00 0.01 0.04 0.06 0.07 0.09 0.10 0.07 0.06 0.06 0.03 0.02 0.06 0.08 0.05 0.06 0.08 0.11 0.12 0.09 0.05 0.01 0.00 0.00 0.00 0.00 0.00 0.00 0.00 0.00 0.00 0.00 0.00 0.00 0.00 0.00 0.00 0.00 0.00 0.00 0.00
0.00 0.00 0.00 0.01 0.04 0.07 0.07 0.07 0.08 0.09 0.08 0.08 0.07 0.02 0.03 0.08 0.12 0.08 0.05 0.05 0.07 0.08 0.04 0.01 0.00 0.00 0.00 0.00 0.00 0.00 0.00 0.00 0.00 0.00 0.00 0.00 0.00 0.00 0.00 0.00 0.00 0.00 0.00
0.00 0.00 0.00 0.02 0.04 0.07 0.09 0.08 0.05 0.08 0.07 0.09 0.06 0.08 0.06 0.06 0.09 0.12 0.16 0.11 0.06 0.02 0.01 0.00 0.00 0.00 0.00 0.00 0.00 0.00 0.00 0.00 0.00 0.00 0.00 0.00 0.00 0.00 0.00 0.00 0.00 0.00 0.00
0.00 0.00 0.02 0.04 0.05 0.08 0.09 0.07 0.07 0.09 0.10 0.09 0.12 0.13 0.15 0.15 0.20 0.14 0.09 0.08 0.12 0.07 0.03 0.01 0.00 0.00 0.00 0.00 0.00 0.00 0.00 0.00 0.00 0.00 0.00 0.00 0.00 0.00 0.00 0.00 0.00 0.00 0.00
0.00 0.06 0.15 0.16 0.11 0.08 0.07 0.07 0.09 0.11 0.16 0.11 0.12 0.17 0.24 0.27 0.23 0.26 0.21 0.14 0.10 0.08 0.06 0.02 0.00 0.00 0.00 0.00 0.00 0.00 0.00 0.00 0.00 0.00 0.00 0.00 0.00 0.00 0.00 0.00 0.00 0.00 0.00
0.01 0.06 0.45 0.35 0.30 0.25 0.18 0.08 0.11 0.10 0.13 0.24 0.17 0.23 0.22 0.27 0.29 0.17 0.13 0.17 0.15 0.11 0.04 0.02 0.00 0.00 0.00 0.00 0.00 0.00 0.00 0.00 0.00 0.00 0.00 0.00 0.00 0.00 0.00 0.00 0.00 0.00 0.00
0.05 0.11 0.08 0.29 0.28 0.22 0.33 0.17 0.12 0.11 0.07 0.18 0.43 0.23 0.34 0.24 0.26 0.18 0.08 0.05 0.05 0.02 0.01 0.00 0.00 0.00 0.00 0.00 0.00 0.00 0.00 0.00 0.00 0.00 0.00 0.00 0.00 0.00 0.00 0.00 0.00 0.00 0.00
0.08 0.10 0.06 0.10 0.14 0.17 0.33 0.28 0.14 0.07 0.02 0.10 0.25 0.28 0.17 0.24 0.17 0.09 0.05 0.03 0.02 0.01 0.00 0.00 0.00 0.00 0.00 0.00 0.00 0.00 0.00 0.00 0.00 0.00 0.00 0.00 0.00 0.00 0.00 0.00 0.00 0.00 0.00
0.04 0.06 0.07 0.30 0.30 0.37 0.40 0.51 0.29 0.04 0.00 0.03 0.07 0.05 0.04 0.05 0.11 0.11 0.05 0.01 0.00 0.00 0.00 0.00 0.00 0.00 0.00 0.00 0.00 0.00 0.00 0.00 0.00 0.00 0.00 0.00 0.00 0.00 0.00 0.00 0.00 0.00 0.00
0.04 0.07 0.10 0.24 0.29 0.39 0.36 0.47 0.21 0.02 0.00 0.00 0.02 0.00 0.01 0.02 0.01 0.01 0.00 0.00 0.00 0.00 0.00 0.00 0.00 0.00 0.00 0.00 0.00 0.00 0.00 0.00 0.00 0.00 0.00 0.00 0.00 0.00 0.00 0.00 0.00 0.00 0.00
0.04 0.05 0.08 0.20 0.14 0.20 0.23 0.38 0.11 0.00 0.00 0.00 0.00 0.00 0.00 0.00 0.00 0.00 0.00 0.00 0.00 0.00 0.00 0.00 0.00 0.00 0.00 0.00 0.00 0.00 0.00 0.00 0.00 0.00 0.00 0.00 0.00 0.00 0.00 0.00 0.00 0.00 0.00
0.03 0.09 0.05 0.12 0.12 0.12 0.15 0.21 0.07 0.00 0.00 0.00 0.00 0.00 0.00 0.00 0.00 0.00 0.00 0.00 0.00 0.00 0.00 0.00 0.00 0.00 0.00 0.00 0.00 0.00 0.00 0.00 0.00 0.00 0.00 0.00 0.00 0.00 0.00 0.00 0.00 0.00 0.00